Weather Roundup
Issued by NWS Chicago, IL

Home | Current Version | Previous Version | Text Only | Print | Product List | Glossary Off
Versions: 1 2 3 4 5 6 7 8 9 10 11 12 13 14 15 16 17 18 19 20 21 22 23 24 25 26 27 28 29 30 31 32 33 34 35 36 37 38 39 40 41 42 43 44 45 46 47 48 49 50

000
NZUS59 KLOT 071608
HRRLOT

CHICAGO AREA WEATHER ROUNDUP
NATIONAL WEATHER SERVICE CHICAGO/ROMEOVILLE IL
1000 AM CST SUN FEB 07 2016

NOTE: "FAIR" INDICATES FEW OR NO CLOUDS BELOW 12,000 FEET WITH NO
SIGNIFICANT WEATHER AND/OR OBSTRUCTIONS TO VISIBILITY.

* THESE STATIONS ARE NOT UNDER NWS QUALITY CONTROL. THEY ALSO MAY NOT
  REPORT WEATHER SUCH AS PRECIPITATION OR FOG.

ILZ005-006-012>014-019>023-071700-
NORTHEAST ILLINOIS

CITY           SKY/WX    TMP DP  RH WIND       PRES   REMARKS
OHARE          CLOUDY    40  29  64 SW17G23   29.78F
MIDWAY         CLOUDY    43  28  55 SW16G29   29.80F
AURORA         MOSUNNY   41  30  65 SW14      29.80F
LANSING*       CLOUDY    40  31  68 SW18G24   29.83F
JOLIET*        CLOUDY    43  32  65 SW15G21   29.82F
WAUKEGAN       CLOUDY    41  30  65 SW13G28   29.74F
DUPAGE AIRPORT CLOUDY    39  28  64 SW16      29.79F
WHEELING       MOSUNNY   41  29  62 SW12G23   29.78F
KANKAKEE*      MOSUNNY   40  31  69 SW18G24   29.86F
MORRIS*        CLOUDY    41  32  69 SW16G24   29.79F
LEWIS AIRPORT* CLOUDY    40  30  66 SW15G22   29.81F
$$

WIZ051-052-058>065-066-070>072-071700-
SOUTHEAST WISCONSIN

CITY           SKY/WX    TMP DP  RH WIND       PRES   REMARKS
MILWAUKEE      CLOUDY    40  28  62 SW21G29   29.71F
KENOSHA*       CLOUDY    40  29  64 SW17G25   29.73F
RACINE*        CLOUDY    41  28  60 SW18G29   29.73F
BURLINGTON     CLOUDY    37  28  72 SW14G23   29.73F
WAUKESHA       PTSUNNY   36  28  75 SW12G17   29.72F
$$

INZ001>003-010>013-019-020-071700-
NORTHWEST INDIANA

CITY           SKY/WX    TMP DP  RH WIND       PRES   REMARKS
GARY*          PTSUNNY   43  28  56 SW16G28   29.83F
MICHIGAN CITY* NOT AVBL
RENSSELAER*    NOT AVBL
VALPARAISO     CLOUDY    41  30  65 SW14      29.85F
$$

LMZ740>746-071700-
SOUTHERN LAKE MICHIGAN

STATION/POSITION TIME  SKY/WX   TEMP WIND        PRES    VSBY
                                AIR  DIR/SP/G
                 (UTC)          (F)  (DEG/KT/KT) (MB)    (MI)
HARRISON CRIB    1500            40  210/ 20/ 24   N/A
BURNHAM HARBOR   1600            42  230/  8/ 13   N/A
CALUMET HARBOR   1500            39  200/ 14/ 25 1009.6F
BURNS HARBOR     1520            41  210/ 17/ 27 1010.8F
MICHIGAN CITY    1500            40  180/ 18/ 23   N/A
$$

ABBREVIATIONS USED IN REMARKS
   TC - TEMPERATURE IN CELSIUS
  WCI - WIND CHILL INDEX
   HX - HEAT INDEX
  VSB - VISIBILITY
$$



USA.gov is the U.S. government's official web portal to all federal, state and local government web resources and services.